Regional Weather Roundup
Issued by NWS

Home | Current Version | Previous Version | Graphics & Text | Print | Product List | Glossary On
Versions: 1 2 3 4 5 6 7 8 9 10 11 12 13 14 15 16 17 18 19 20 21 22 23 24 25 26 27 28 29 30 31 32 33 34 35 36 37 38 39 40 41 42 43 44 45 46 47 48 49 50
000
ASUS43 KLMK 051502
RWRKY
KENTUCKY REGIONAL WEATHER ROUNDUP
NATIONAL WEATHER SERVICE LOUISVILLE KY
1100 AM EDT SUN JUL 05 2015

NOTE "FAIR" INDICATES FEW OR NO CLOUDS BELOW 12,000 FEET
WITH NO SIGNIFICANT WEATHER AND/OR OBSTRUCTIONS TO VISIBILITY.

KYZ001>023-026-027-061>063-070>075-051600-
WESTERN AND SOUTH CENTRAL KENTUCKY

CITY           SKY/WX    TMP DP  RH WIND       PRES   REMARKS
PADUCAH        MOSUNNY   74  69  85 CALM      30.08R HAZE
HENDERSON      PTSUNNY   75  70  83 CALM      30.05F
OWENSBORO      PTSUNNY   77  71  81 CALM      30.07S HAZE
HOPKINSVILLE   MOSUNNY   76  70  83 VRB5      30.08S
BOWLING GREEN  CLOUDY    72  67  84 S5        30.09R
GLASGOW        NOT AVBL
$$

KYZ024-025-028>034-038-045-046-053-051600-
NORTH CENTRAL KENTUCKY

CITY           SKY/WX    TMP DP  RH WIND       PRES   REMARKS
LOUISVILLE/SDF CLOUDY    75  67  76 E6        30.08R
LOUISVILLE/LOU CLOUDY    74  67  78 E3        30.09R
FORT KNOX      CLOUDY    71  68  89 E5        30.07S
$$

KYZ035>037-039>044-047>052-055>060-089>105-051600-
NORTHEAST KENTUCKY

CITY           SKY/WX    TMP DP  RH WIND       PRES   REMARKS
LEXINGTON      CLOUDY    71  64  78 E6        30.09S
COVINGTON      CLOUDY    75  60  59 E7        30.11R
FRANKFORT      CLOUDY    74  60  61 E7        30.09R
$$

KYZ054-064>069-076>088-106>120-051600-
SOUTHEAST KENTUCKY

CITY           SKY/WX    TMP DP  RH WIND       PRES   REMARKS
JACKSON        CLOUDY    71  68  90 CALM      30.11S
LONDON         RAIN      69  65  86 E5        30.10S FOG
SOMERSET       NOT AVBL
MIDDLESBORO    NOT AVBL
MONTICELLO     PTSUNNY   72  70  93 CALM      30.11S
$$




USA.gov is the U.S. government's official web portal to all federal, state and local government web resources and services.